Simultaneous Nadir Overpasses (SNOs) Predictions

Prediction of SNOs between GOES-14 and NOAA-20 Satellite Orbit:

Table of predicted SNOs for the next 14.0 days since TLE Epoch: 5/29/2021
Index Date Time (GOES-14) GOES-14 Lat,Lon NOAA-20 Lat,Lon Distance(km) Time Diff (sec)
1 05/29/2021 20:36:20 -0.06,-104.33 -0.77,-107.44 355.67 80
2 05/30/2021 20:14:56 -0.08,-104.32 0.24,-102.91 160.42 80
3 06/01/2021 08:36:43 0.05,-104.12 0.98,-108.18 462.25 80
4 06/02/2021 08:20:39 0.07,-104.13 -0.03,-103.65 54.80 80
5 06/04/2021 20:23:53 -0.06,-104.34 -0.05,-104.44 11.96 80
6 06/07/2021 08:24:15 0.04,-104.14 0.26,-105.18 117.76 80
7 06/08/2021 08:08:11 0.05,-104.15 -0.75,-100.65 399.38 80
8 06/09/2021 20:27:28 -0.02,-104.36 -0.39,-105.96 183.35 80
9 06/10/2021 20:11:24 -0.04,-104.36 0.62,-101.43 333.16 80
